When you browse on this site, cookies collect data to enhance your experience and personalize the content and advertising you see.
Visit our Privacy Policy to learn more. By continuing to use the site, you agree to this use of cookies and data.
  • In United Kingdom
  • List of Countries
  • For 7 days
  • Water Temperature
  • Satellite Maps
  • Weather Map
  • Weather Widgets
  • user-avatar
    Login

    Hourly Weather Jasliq

    Today, 21 January, Monday

    Time Temperature Precipitation Wind Pressure Humidity
    00:00 -2°C° 0 mm 4 mps 756 mmHg 93%
    01:00 -2°C° 0 mm 4 mps 756 mmHg 94%
    02:00 -2°C° 0 mm 4 mps 757 mmHg 94%
    03:00 -1°C° 0 mm 3 mps 757 mmHg 94%
    04:00 -1°C° 0 mm 3 mps 757 mmHg 94%
    05:00 -1°C° 0 mm 3 mps 758 mmHg 94%
    06:00 -2°C° 0 mm 2 mps 758 mmHg 94%
    07:00 -2°C° 0 mm 2 mps 758 mmHg 94%
    08:00 -2°C° 0 mm 2 mps 759 mmHg 91%
    09:00 -2°C° 0 mm 2 mps 759 mmHg 89%
    10:00 -3°C° 0 mm 2 mps 760 mmHg 85%
    11:00 0°C° 0 mm 1 mps 760 mmHg 83%
    12:00 0°C° 0 mm 1 mps 760 mmHg 81%
    13:00 0°C° 0 mm 1 mps 760 mmHg 79%
    14:00 0°C° 0 mm 1 mps 760 mmHg 79%
    15:00 0°C° 0 mm 1 mps 759 mmHg 80%
    16:00 -1°C° 0 mm 0 mps 759 mmHg 80%
    17:00 0°C° 0 mm 1 mps 759 mmHg 81%
    18:00 -1°C° 0 mm 1 mps 759 mmHg 82%
    19:00 -1°C° 0 mm 1 mps 759 mmHg 83%
    20:00 -3°C° 0 mm 2 mps 759 mmHg 83%
    21:00 -3°C° 0 mm 2 mps 758 mmHg 84%
    22:00 -2°C° 0 mm 3 mps 758 mmHg 85%
    23:00 -2°C° 0 mm 3 mps 758 mmHg 86%

    Tomorrow, 22 January, Tuesday

    Time Temperature Precipitation Wind Pressure Humidity
    00:00 -3°C° 0 mm 4 mps 758 mmHg 88%
    01:00 -3°C° 0 mm 4 mps 757 mmHg 89%
    02:00 -2°C° 0 mm 4 mps 757 mmHg 90%
    03:00 -2°C° 0 mm 4 mps 757 mmHg 92%
    04:00 -2°C° 0 mm 4 mps 757 mmHg 93%
    05:00 -2°C° 0 mm 4 mps 756 mmHg 94%
    06:00 -2°C° 0 mm 4 mps 756 mmHg 95%
    07:00 -2°C° 0 mm 4 mps 756 mmHg 95%
    08:00 -2°C° 0 mm 4 mps 756 mmHg 94%
    09:00 -1°C° 0 mm 4 mps 756 mmHg 92%
    10:00 -1°C° 0 mm 4 mps 756 mmHg 91%
    11:00 0°C° 0 mm 4 mps 756 mmHg 89%
    12:00 +1°C° 0 mm 5 mps 755 mmHg 88%
    13:00 +1°C° 0 mm 5 mps 755 mmHg 87%
    14:00 +1°C° 0 mm 4 mps 755 mmHg 85%
    15:00 +1°C° 0 mm 4 mps 754 mmHg 83%
    16:00 +3°C° 0 mm 4 mps 754 mmHg 81%
    17:00 +1°C° 0 mm 4 mps 754 mmHg 82%
    18:00 0°C° 0 mm 4 mps 754 mmHg 83%
    19:00 0°C° 0 mm 4 mps 755 mmHg 84%
    20:00 0°C° 0 mm 4 mps 755 mmHg 85%
    21:00 -1°C° 0 mm 4 mps 754 mmHg 86%
    22:00 -1°C° 0 mm 4 mps 754 mmHg 86%
    23:00 -1°C° 0 mm 4 mps 754 mmHg 88%

    Day after tomorrow, 23 January, Wednesday

    Time Temperature Precipitation Wind Pressure Humidity
    00:00 -1°C° 0 mm 4 mps 754 mmHg 89%
    01:00 -2°C° 0 mm 4 mps 754 mmHg 90%
    02:00 -2°C° 0 mm 4 mps 754 mmHg 90%
    03:00 -2°C° 0 mm 4 mps 754 mmHg 90%
    04:00 -2°C° 0 mm 4 mps 754 mmHg 91%
    05:00 -2°C° 0 mm 4 mps 754 mmHg 90%
    06:00 -2°C° 0 mm 4 mps 754 mmHg 90%
    07:00 -2°C° 0 mm 4 mps 754 mmHg 89%
    08:00 -2°C° 0 mm 4 mps 754 mmHg 87%
    09:00 -1°C° 0 mm 4 mps 755 mmHg 84%
    10:00 0°C° 0 mm 4 mps 755 mmHg 82%
    11:00 +1°C° 0 mm 3 mps 755 mmHg 81%
    12:00 +2°C° 0 mm 3 mps 755 mmHg 79%
    13:00 +3°C° 0 mm 3 mps 754 mmHg 78%
    14:00 +2°C° 0 mm 3 mps 755 mmHg 79%
    15:00 +2°C° 0 mm 3 mps 755 mmHg 81%
    16:00 +2°C° 0 mm 2 mps 755 mmHg 83%
    17:00 0°C° 0 mm 3 mps 755 mmHg 86%
    18:00 -2°C° 0 mm 4 mps 756 mmHg 89%
    19:00 -3°C° 0 mm 4 mps 756 mmHg 93%
    20:00 -3°C° 0 mm 4 mps 757 mmHg 92%
    21:00 -3°C° 0 mm 4 mps 757 mmHg 92%
    22:00 -3°C° 0 mm 4 mps 757 mmHg 91%
    23:00 -4°C° 0 mm 4 mps 758 mmHg 91%

    24 January, Thursday

    Time Temperature Precipitation Wind Pressure Humidity
    00:00 -5°C° 0 mm 4 mps 758 mmHg 90%
    01:00 -5°C° 0 mm 4 mps 758 mmHg 89%
    02:00 -7°C° 0 mm 4 mps 759 mmHg 85%
    03:00 -7°C° 0 mm 4 mps 759 mmHg 80%
    04:00 -8°C° 0 mm 5 mps 759 mmHg 76%
    05:00 -8°C° 0 mm 4 mps 759 mmHg 74%
    06:00 -8°C° 0 mm 4 mps 760 mmHg 73%
    07:00 -8°C° 0 mm 4 mps 760 mmHg 71%
    08:00 -7°C° 0 mm 4 mps 760 mmHg 74%
    09:00 -5°C° 0 mm 4 mps 761 mmHg 77%
    10:00 -4°C° 0 mm 4 mps 761 mmHg 79%
    11:00 -5°C° 0 mm 5 mps 761 mmHg 76%
    12:00 -5°C° 0 mm 5 mps 761 mmHg 73%
    13:00 -4°C° 0 mm 5 mps 761 mmHg 69%
    14:00 -5°C° 0 mm 5 mps 761 mmHg 72%
    15:00 -5°C° 0 mm 5 mps 761 mmHg 75%
    16:00 -5°C° 0 mm 6 mps 761 mmHg 77%
    17:00 -6°C° 0 mm 6 mps 761 mmHg 80%
    18:00 -6°C° 0 mm 6 mps 761 mmHg 83%
    19:00 -8°C° 0 mm 6 mps 761 mmHg 85%
    20:00 -8°C° 0 mm 6 mps 761 mmHg 85%
    21:00 -6°C° 0 mm 6 mps 761 mmHg 85%
    22:00 -6°C° 0 mm 6 mps 761 mmHg 85%
    23:00 -6°C° 0 mm 6 mps 761 mmHg 86%

    25 January, Friday

    Time Temperature Precipitation Wind Pressure Humidity
    00:00 -6°C° 0 mm 6 mps 760 mmHg 86%
    01:00 -6°C° 0 mm 6 mps 760 mmHg 87%
    02:00 -6°C° 0 mm 6 mps 759 mmHg 88%
    03:00 -7°C° 0 mm 7 mps 759 mmHg 89%
    04:00 -7°C° 0 mm 7 mps 758 mmHg 91%
    05:00 -7°C° 0 mm 7 mps 758 mmHg 91%
    06:00 -7°C° 0 mm 7 mps 758 mmHg 91%
    07:00 -6°C° 0 mm 6 mps 758 mmHg 91%
    08:00 -6°C° 0 mm 7 mps 758 mmHg 89%
    09:00 -4°C° 0 mm 7 mps 758 mmHg 87%
    10:00 -4°C° 0 mm 7 mps 758 mmHg 85%
    11:00 -3°C° 0 mm 6 mps 757 mmHg 80%
    12:00 -1°C° 0 mm 6 mps 757 mmHg 75%
    13:00 +1°C° 0 mm 6 mps 756 mmHg 70%
    14:00 +1°C° 0 mm 6 mps 756 mmHg 70%
    15:00 +1°C° 0 mm 6 mps 755 mmHg 69%
    16:00 +1°C° 0 mm 5 mps 755 mmHg 69%
    17:00 -1°C° 0 mm 6 mps 755 mmHg 71%
    18:00 -1°C° 0 mm 6 mps 754 mmHg 73%
    19:00 -2°C° 0 mm 6 mps 754 mmHg 75%
    20:00 -2°C° 0 mm 6 mps 754 mmHg 73%
    21:00 -2°C° 0 mm 6 mps 754 mmHg 72%
    22:00 -2°C° 0 mm 6 mps 753 mmHg 70%
    23:00 -2°C° 0 mm 6 mps 753 mmHg 69%

    26 January, Saturday

    Time Temperature Precipitation Wind Pressure Humidity
    00:00 -2°C° 0 mm 6 mps 753 mmHg 68%
    01:00 -1°C° 0 mm 5 mps 753 mmHg 66%
    02:00 -1°C° 0 mm 5 mps 752 mmHg 66%
    03:00 -1°C° 0 mm 5 mps 752 mmHg 66%
    04:00 -1°C° 0 mm 5 mps 752 mmHg 66%
    05:00 -1°C° 0 mm 5 mps 752 mmHg 66%
    06:00 -1°C° 0 mm 5 mps 751 mmHg 66%
    07:00 -2°C° 0 mm 6 mps 751 mmHg 65%
    08:00 -2°C° 0 mm 6 mps 751 mmHg 62%
    09:00 -1°C° 0 mm 6 mps 751 mmHg 59%
    10:00 +1°C° 0 mm 6 mps 751 mmHg 56%
    11:00 +2°C° 0 mm 6 mps 751 mmHg 53%
    12:00 +3°C° 0 mm 6 mps 750 mmHg 50%
    13:00 +4°C° 0 mm 6 mps 750 mmHg 47%
    14:00 +4°C° 0 mm 6 mps 749 mmHg 49%
    15:00 +5°C° 0 mm 5 mps 749 mmHg 50%
    16:00 +3°C° 0 mm 5 mps 748 mmHg 52%
    17:00 +3°C° 0 mm 5 mps 748 mmHg 53%
    18:00 +2°C° 0 mm 5 mps 748 mmHg 54%
    19:00 +1°C° 0 mm 5 mps 748 mmHg 55%
    20:00 +1°C° 0 mm 5 mps 748 mmHg 57%
    21:00 +1°C° 0 mm 5 mps 747 mmHg 58%
    22:00 0°C° 0 mm 4 mps 747 mmHg 60%
    23:00 +1°C° 0 mm 4 mps 747 mmHg 62%
    Show more